SR - Orbit

View from above orbital plane
View from above orbital plane
View from above satellite
View from above satellite

Ground track
Ground track

The orbit data is extracted from the following two-line orbital elements,

1 00046U 60007B   13140.48162237  .00000500  00000-0  12368-3 0  3683
2 00046 066.6906 183.9797 0224089 257.0259 100.5741 14.47003826764688
Epoch (UTC): 20 May 2013 11:33:32
Eccentricity: 0.0224089
inclination: 66.6906°
perigee height: 576 km
apogee height: 895 km
right ascension of ascending node: 183.9797°
argument of perigee: 257.0259°
revolutions per day: 14.47003826
mean anomaly at epoch: 100.5741°
orbit number at epoch: 76468

The dashed part of the orbit path shows where the satellite is in the earth's shadow,  

Developed and maintained by Chris Peat, Heavens-Above GmbH. Please read the updated FAQ before sending e-mail. Imprint. DLR